CW4378 Weather Reports


Display with metric or nautical units.
time (UTC)temp
F
wind
direction
speed
MPH
gust
MPH
rain 1hr
in
rain 24hr
in
rain mn
in
humidity
%
barometer
mb
20190325183105 69 360 1.0 12.0 0.00 0.18 0.18 55 1019.3
20190325182104 69 10 3.0 10.0 0.00 0.18 0.18 54 1019.4
20190325181104 69 9 2.0 9.0 0.00 0.18 0.18 53 1019.3
20190325180104 69 157 3.0 12.0 0.00 0.18 0.18 55 1019.3
20190325175103 70 64 4.0 8.0 0.00 0.18 0.18 57 1019.2
20190325174103 69 317 2.0 10.0 0.00 0.18 0.18 57 1019.2
20190325173103 68 28 2.0 7.0 0.00 0.18 0.18 57 1019.3
20190325172103 67 355 3.0 8.0 0.00 0.18 0.18 57 1019.3
20190325171103 67 355 2.0 8.0 0.00 0.18 0.18 59 1019.3
20190325170103 67 315 2.0 9.0 0.00 0.18 0.18 59 1019.4
20190325165103 66 249 1.0 8.0 0.00 0.18 0.18 62 1019.3
20190325164103 66 23 4.0 9.0 0.00 0.18 0.18 61 1019.5
20190325163103 66 37 4.0 9.0 0.00 0.18 0.18 62 1019.4
20190325162103 65 5 3.0 10.0 0.00 0.18 0.18 65 1019.3
20190325161103 65 11 1.0 9.0 0.00 0.18 0.18 63 1019.3
20190325160102 64 61 3.0 8.0 0.00 0.18 0.18 68 1019.4
20190325155102 63 11 3.0 9.0 0.00 0.18 0.18 68 1019.1
20190325154102 63 355 2.0 7.0 0.00 0.18 0.18 71 1019.1
20190325153102 62 11 2.0 7.0 0.00 0.18 0.18 74 1018.9
20190325152101 62 18 3.0 7.0 0.00 0.18 0.18 73 1018.9
20190325151101 62 9 2.0 6.0 0.00 0.18 0.18 74 1018.7
20190325150102 61 22 2.0 7.0 0.00 0.18 0.18 77 1018.6
20190325145101 60 5 2.0 8.0 0.00 0.18 0.18 78 1018.4
20190325144101 60 5 4.0 9.0 0.00 0.18 0.18 78 1018.3
20190325143101 59 344 2.0 8.0 0.00 0.18 0.18 80 1018.2
20190325142101 59 345 5.0 7.0 0.00 0.18 0.18 82 1018.1
20190325141101 58 11 5.0 8.0 0.00 0.18 0.18 83 1017.8
20190325140101 58 346 1.0 5.0 0.00 0.18 0.18 84 1017.5
20190325135101 57 5 2.0 8.0 0.00 0.18 0.18 85 1017.5
20190325134101 56 17 1.0 5.0 0.00 0.18 0.18 86 1017.3
20190325133101 56 13 1.0 6.0 0.00 0.18 0.18 87 1017.0
20190325132100 56 5 4.0 5.0 0.00 0.18 0.18 89 1017.0
20190325131101 55 11 3.0 8.0 0.00 0.18 0.18 91 1017.1
20190325130100 55 19 1.0 3.0 0.00 0.18 0.18 93 1017.1
20190325125101 54 355 0.0 0.0 0.00 0.18 0.18 94 1017.0
20190325124100 54 355 0.0 0.0 0.00 0.18 0.18 93 1016.8
20190325123100 54 355 0.0 0.0 0.00 0.18 0.18 93 1016.6
20190325122100 54 355 0.0 0.0 0.00 0.18 0.18 92 1016.4
20190325121059 55 355 0.0 0.0 0.00 0.18 0.18 92 1016.4
20190325120100 55 355 0.0 1.0 0.00 0.18 0.18 92 1016.3
20190325115059 56 351 1.0 3.0 0.00 0.18 0.18 92 1016.2
20190325114059 56 5 2.0 6.0 0.00 0.18 0.18 92 1016.1
20190325113059 56 16 2.0 3.0 0.00 0.18 0.18 93 1016.0
20190325112059 57 10 1.0 2.0 0.00 0.18 0.18 94 1015.6
20190325111059 58 355 0.0 2.0 0.00 0.18 0.18 94 1015.6
20190325110059 58 344 0.0 3.0 0.00 0.18 0.18 95 1015.5
20190325105059 59 344 0.0 2.0 0.00 0.18 0.18 95 1015.3
20190325104059 59 344 0.0 5.0 0.00 0.18 0.18 95 1015.2
20190325103058 59 9 3.0 5.0 0.00 0.18 0.18 95 1014.7
20190325102059 60 355 0.0 0.0 0.00 0.18 0.18 95 1014.7
20190325101058 60 275 0.0 0.0 0.00 0.18 0.18 95 1014.7
20190325100058 60 237 0.0 0.0 0.00 0.18 0.18 95 1014.7
20190325095058 60 237 0.0 0.0 0.00 0.18 0.18 95 1014.8
20190325094058 60 237 0.0 0.0 0.00 0.18 0.18 96 1014.8
20190325093058 60 237 0.0 0.0 0.00 0.18 0.18 95 1014.7
20190325092058 59 237 0.0 0.0 0.00 0.18 0.18 95 1014.8
20190325091058 59 237 0.0 0.0 0.00 0.18 0.18 95 1014.5
20190325090100 59 237 0.0 0.0 0.00 0.18 0.18 95 1014.2
20190325085058 59 237 0.0 0.0 0.00 0.18 0.18 95 1014.1
20190325084057 59 237 0.0 0.0 0.00 0.18 0.18 95 1014.1
20190325083057 59 248 0.0 0.0 0.00 0.18 0.18 94 1014.0
20190325082057 60 248 0.0 1.0 0.00 0.18 0.18 95 1014.0
20190325081057 59 248 0.0 1.0 0.00 0.18 0.18 94 1013.8
20190325080057 59 248 0.0 1.0 0.00 0.18 0.18 94 1013.7
20190325075057 60 248 1.0 1.0 0.00 0.18 0.18 94 1013.7
20190325074056 60 248 1.0 2.0 0.00 0.18 0.18 93 1013.8
20190325073057 60 248 0.0 1.0 0.00 0.18 0.18 93 1013.7
20190325072057 60 248 0.0 2.0 0.00 0.18 0.18 93 1013.7
20190325071056 61 248 0.0 3.0 0.00 0.18 0.18 93 1013.7
20190325070056 61 263 1.0 2.0 0.00 0.17 0.17 93 1013.6
20190325065056 61 263 0.0 2.0 0.00 0.17 0.17 92 1013.2
20190325064056 61 188 0.0 2.0 0.00 0.17 0.17 91 1013.1
20190325063058 62 188 0.0 4.0 0.00 0.17 0.17 91 1013.5
20190325062055 63 200 2.0 9.0 0.00 0.15 0.15 89 1014.6
20190325061055 64 225 5.0 10.0 0.00 0.13 0.13 92 1014.8
20190325060056 65 200 2.0 6.0 0.00 0.06 0.06 91 1014.3
20190325055056 65 5 2.0 3.0 0.00 0.00 0.00 90 1014.4
20190325054056 65 104 1.0 2.0 0.00 0.00 0.00 90 1014.0
20190325053055 64 104 0.0 2.0 0.00 0.00 0.00 90 1013.6
20190325052055 64 104 1.0 2.0 0.00 0.00 0.00 90 1013.5
20190325051055 64 105 2.0 2.0 0.00 0.00 0.00 89 1013.5
20190325050125 65 202 0.0 2.0 0.00 0.00 0.00 89 1013.7
20190325045125 65 202 1.0 2.0 0.00 0.00 0.00 89 1013.6
20190325044124 65 202 0.0 2.0 0.00 0.00 0.00 89 1013.6
20190325043125 64 202 0.0 1.0 0.00 0.00 0.00 89 1013.6
20190325042124 65 202 0.0 3.0 0.00 0.00 0.00 89 1013.6
20190325041124 65 190 0.0 3.0 0.00 0.00 0.00 88 1013.6
20190325040124 65 190 0.0 2.0 0.00 0.00 0.00 87 1013.6
20190325035124 66 190 0.0 4.0 0.00 0.00 0.00 87 1013.6
20190325034124 66 186 2.0 5.0 0.00 0.00 0.00 86 1013.8
20190325033123 66 196 3.0 5.0 0.00 0.00 0.00 86 1013.8
20190325032124 67 207 4.0 5.0 0.00 0.00 0.00 86 1014.0
20190325031124 67 202 4.0 7.0 0.00 0.00 0.00 86 1013.7
20190325030123 67 195 5.0 7.0 0.00 0.00 0.00 86 1013.6
20190325025123 67 213 5.0 8.0 0.00 0.00 0.00 86 1013.5
20190325024123 67 184 2.0 7.0 0.00 0.00 0.00 86 1013.4
20190325023123 67 218 1.0 6.0 0.00 0.00 0.00 86 1013.5
20190325022123 67 195 3.0 5.0 0.00 0.00 0.00 85 1013.3
20190325021122 67 186 3.0 5.0 0.00 0.00 0.00 85 1013.2
20190325020122 67 194 2.0 4.0 0.00 0.00 0.00 85 1013.4
20190325015123 68 176 3.0 4.0 0.00 0.00 0.00 84 1013.7
20190325014122 68 184 0.0 1.0 0.00 0.00 0.00 83 1013.6
20190325013122 69 184 0.0 3.0 0.00 0.00 0.00 82 1013.6
20190325012122 69 184 0.0 0.0 0.00 0.00 0.00 81 1013.5
20190325011122 69 184 0.0 3.0 0.00 0.00 0.00 80 1013.4
20190325010122 69 182 0.0 2.0 0.00 0.00 0.00 80 1013.2
20190325005122 70 182 1.0 4.0 0.00 0.00 0.00 79 1013.2
20190325004122 70 186 1.0 5.0 0.00 0.00 0.00 78 1013.3
20190325003122 70 186 2.0 4.0 0.00 0.00 0.00 78 1013.2
20190325002121 71 186 2.0 6.0 0.00 0.00 0.00 77 1012.7
20190325001122 71 193 1.0 6.0 0.00 0.00 0.00 76 1013.0
20190325000121 72 186 3.0 7.0 0.00 0.00 0.00 75 1012.7
20190324235121 72 192 2.0 7.0 0.00 0.00 0.00 74 1012.6
20190324234121 73 182 3.0 9.0 0.00 0.00 0.00 74 1012.9
20190324233121 73 198 6.0 8.0 0.00 0.00 0.00 72 1013.0
20190324232121 74 202 3.0 9.0 0.00 0.00 0.00 71 1013.1
20190324231120 74 186 1.0 8.0 0.00 0.00 0.00 71 1013.2
20190324230120 74 195 3.0 9.0 0.00 0.00 0.00 70 1013.3
20190324225120 75 192 4.0 9.0 0.00 0.00 0.00 71 1013.3
20190324224120 75 175 2.0 9.0 0.00 0.00 0.00 70 1013.3
20190324223120 75 209 4.0 8.0 0.00 0.00 0.00 69 1013.3
20190324222120 76 194 4.0 6.0 0.00 0.00 0.00 70 1013.4
20190324221119 75 182 1.0 7.0 0.00 0.00 0.00 70 1013.5
20190324220119 75 148 1.0 10.0 0.00 0.00 0.00 71 1013.6
20190324215120 75 196 2.0 11.0 0.00 0.00 0.00 70 1013.8
20190324214119 75 188 4.0 9.0 0.00 0.00 0.00 70 1013.9
20190324213119 75 153 1.0 8.0 0.00 0.00 0.00 69 1013.8
20190324212119 76 186 3.0 8.0 0.00 0.00 0.00 70 1013.9
20190324211119 76 179 1.0 10.0 0.00 0.00 0.00 68 1014.1
20190324210118 76 195 3.0 10.0 0.00 0.00 0.00 68 1014.0
20190324205118 76 200 3.0 7.0 0.00 0.00 0.00 69 1014.0
20190324204118 75 211 3.0 8.0 0.00 0.00 0.00 70 1014.1
20190324203118 75 175 1.0 7.0 0.00 0.00 0.00 70 1014.1
20190324202118 75 180 2.0 8.0 0.00 0.00 0.00 70 1014.2
20190324201118 75 171 1.0 8.0 0.00 0.00 0.00 69 1014.3
20190324200118 76 204 1.0 9.0 0.00 0.00 0.00 68 1014.4
20190324195118 76 212 4.0 9.0 0.00 0.00 0.00 67 1014.5
20190324194117 76 192 4.0 11.0 0.00 0.00 0.00 70 1014.6
20190324193117 76 212 5.0 11.0 0.00 0.00 0.00 67 1014.6
20190324192117 76 178 2.0 10.0 0.00 0.00 0.00 67 1014.8
20190324191117 75 186 2.0 9.0 0.00 0.00 0.00 69 1014.9
20190324190117 75 180 1.0 9.0 0.00 0.00 0.00 69 1014.9
20190324185117 74 198 4.0 7.0 0.00 0.00 0.00 70 1015.1
20190324184116 73 200 1.0 11.0 0.00 0.00 0.00 73 1015.3